Satellite: NOAA-17
Catalog number: 27453
Epoch time:      12242.70662522
Element set:    0817
Inclination:      098.3334 deg
RA of node:       266.0189 deg
Eccentricity:    0.0010927
Arg of perigee:   304.7097 deg
Mean anomaly:     055.3035 deg
Mean motion:   14.24473753 rev/day
Decay rate:       -2.3e-07 rev/day^2
Epoch rev:           52922
Checksum:              295

Satellite: NOAA-18
Catalog number: 28654
Epoch time:      12242.77771265
Element set:    0299
Inclination:      099.0531 deg
RA of node:       201.5060 deg
Eccentricity:    0.0013708
Arg of perigee:   310.7125 deg
Mean anomaly:     049.2836 deg
Mean motion:   14.11691140 rev/day
Decay rate:       1.18e-06 rev/day^2
Epoch rev:           37494
Checksum:              293

Satellite: NOAA-19
Catalog number: 33591
Epoch time:      12242.80216274
Element set:    0488
Inclination:      098.8673 deg
RA of node:       181.6920 deg
Eccentricity:    0.0014128
Arg of perigee:   169.6514 deg
Mean anomaly:     190.4953 deg
Mean motion:   14.11378045 rev/day
Decay rate:       2.38e-06 rev/day^2
Epoch rev:           18339
Checksum:              320

/EX
SB KEPS @ AMSAT  $ORB12243.M
Orbital Elements  12243.MISC

HR AMSAT ORBITAL ELEMENTS FOR MANNED AND MISCELLANEOUS SATELLITES
FROM WA5QGD FORT WORTH,TX August 30, 2012
Send SUBSCRIBE KEPS/UNSUBSCRIBE KEPS to majordomo@amsat.org only
BID: ORB12243.M
TO ALL RADIO AMATEURS BT

Satellite: HUBBLE
Catalog number: 20580
Epoch time:      12241.12217144
Element set:      60
Inclination:      028.4704 deg
RA of node:       032.7181 deg
Eccentricity:    0.0003386
Arg of perigee:   103.9948 deg
Mean anomaly:     256.1080 deg
Mean motion:   15.02711964 rev/day
Decay rate:       6.71e-06 rev/day^2
Epoch rev:            2556
Checksum:              253

Satellite: ISS
Catalog number: 25544
Epoch time:      12243.89946671
Element set:     214
Inclination:      051.6478 deg
RA of node:       109.6447 deg
Eccentricity:    0.0015152
Arg of perigee:   018.9022 deg
Mean anomaly:     073.7037 deg
Mean motion:   15.50185791 rev/day
Decay rate:      7.592e-05 rev/day^2
Epoch rev:           78963
Checksum:              320

Satellite: CO-58
Catalog number: 28895
Epoch time:      12242.65426613
Element set:    0264
Inclination:      097.9050 deg
RA of node:       105.6624 deg
Eccentricity:    0.0016740
Arg of perigee:   282.2985 deg
Mean anomaly:     077.6334 deg
Mean motion:   14.60717163 rev/day
Decay rate:       4.23e-06 rev/day^2
Epoch rev:           36438
Checksum:              318

Satellite: FALCON
Catalog number: 30776
Epoch time:      12242.95397257
Element set:    0438
Inclination:      035.4309 deg
RA of node:       186.1133 deg
Eccentricity:    0.0002811
Arg of perigee:   311.9306 deg
Mean anomaly:     048.1209 deg
Mean motion:   15.08014938 rev/day
Decay rate:      3.191e-05 rev/day^2
Epoch rev:           30139
Checksum:              279

Satellite: MAST
Catalog number: 31126
Epoch time:      12242.98376590
Element set:    0556
Inclination:      097.8754 deg
RA of node:       249.7750 deg
Eccentricity:    0.0092649
Arg of perigee:   240.5056 deg
Mean anomaly:     118.6877 deg
Mean motion:   14.54234786 rev/day
Decay rate:       3.77e-06 rev/day^2
Epoch rev:           28499
Checksum:              353

Satellite: CAPE1
Catalog number: 31130
Epoch time:      12242.59887605
Element set:     554
Inclination:      097.8847 deg
RA of node:       245.7567 deg
Eccentricity:    0.0100027
Arg of perigee:   255.4623 deg
Mean anomaly:     103.5447 deg
Mean motion:   14.53039405 rev/day
Decay rate:       3.78e-06 rev/day^2
Epoch rev:           28443
Checksum:              304

Satellite: COMPASS
Catalog number: 32787
Epoch time:      12243.77117322
Element set:     395
Inclination:      097.7957 deg
RA of node:       303.4413 deg
Eccentricity:    0.0015242
Arg of perigee:   171.6870 deg
Mean anomaly:     188.4580 deg
Mean motion:   14.84245610 rev/day
Decay rate:      1.091e-05 rev/day^2
Epoch rev:           23487
Checksum:              304

Satellite: AAUSAT2
Catalog number: 32788
Epoch time:      12242.71310670
Element set:     387
Inclination:      097.7966 deg
RA of node:       302.8309 deg
Eccentricity:    0.0014909
Arg of perigee:   175.6753 deg
Mean anomaly:     184.4599 deg
Mean motion:   14.84583292 rev/day
Decay rate:      1.186e-05 rev/day^2
Epoch rev:           23474
Checksum:              340

Satellite: DO-64
Catalog number: 32789
Epoch time:      12243.69241781
Element set:     404
Inclination:      097.8068 deg
RA of node:       306.1041 deg
Eccentricity:    0.0014881
Arg of perigee:   168.9178 deg
Mean anomaly:     191.2327 deg
Mean motion:   14.86251387 rev/day
Decay rate:      3.070e-05 rev/day^2
Epoch rev:           23494
Checksum:              323

Satellite: CO-66
Catalog number: 32791
Epoch time:      12242.64470217
Element set:    0385
Inclination:      097.7935 deg
RA of node:       302.0193 deg
Eccentricity:    0.0015379
Arg of perigee:   176.4393 deg
Mean anomaly:     183.6897 deg
Mean motion:   14.83615643 rev/day
Decay rate:       8.49e-06 rev/day^2
Epoch rev:           23463
Checksum:              340

